EROS B

Last updated on Fri Oct 04 2024 00:02:24 GMT+0000 (Coordinated Universal Time)

1 29079U 06014A 24277.58845479 .00048978 00000+0 24475-2 0 9999 2 29079 97.3406 28.3568 0007936 211.2718 148.8045 15.17259752 23950
UTC large
Height (km)
Speed (km/s)
/
Latitude / Longitude
Inclination (degrees)
Orbital Period (minutes)
Azimuth
Elevation
Range (km)
Doppler Factor

Next 0 passes for location: London (51.5072 / 0.1276)

Sorry there are no passes over London.